Location: Arbon
(43.0005°N, 0.7472°E)
Time: 10:53:55
(UTC+00:00)

NOSS 3-4 (C) - Pass Details

Date: 22 April 2026
Orbit: 773 x 1438 km, 63.4° (Epoch: 26 December)

Event Time Altitude Azimuth Distance (km) Brightness Sun altitude
Rises 19:20:51 0° 228° (SW) 3,237 6.6 -6.5°
Reaches altitude 10° 19:23:14 10° 233° (SW) 2,324 5.9 -6.9°
Maximum altitude 19:28:24 55° 312° (NW) 969 4.0 -7.8°
Drops below altitude 10° 19:34:05 10° 30° (NNE) 2,550 5.7 -8.7°
Sets 19:36:48 0° 35° (NE) 3,581 6.4 -9.2°
